BAW82P EGLL-KSAN

Flight info

Callsign BAW82P
Flight time N/A
Altitude 32000
Route CPT L9 DIDZA N14 OKTAD DCT MEDOG DCT VATRY DCT ETARI/M083F340 DCT 56N020W 5630N03000W 5630N04000W 56N050W DCT JANJO/N0484F340 DCT HENDY DCT YSP/N0474F360 DCT DLH DCT HON DCT BFF J157 LAR/N0485F380 DCT JNC DCT EED BARET5
Aircraft B77W/H-SDE1E3FGHIJ3J5J6M1M2P2RWXY/LB1D1

Departure

Time N/A
Airport London Heathrow Airport (EGLL)

Arrival

Time 2026-04-23 19:08
Airport San Diego International Airport (KSAN)
Time Latitude Longitude Altitude Speed Heading
2026-04-23 13:17 52.74942 -66.72424 33963 ft 516 kts 247°
2026-04-23 13:18 52.72924 -66.83751 33959 ft 513 kts 248°
2026-04-23 13:18 52.70873 -66.95175 33965 ft 517 kts 248°
2026-04-23 13:19 52.68830 -67.06497 33964 ft 513 kts 248°
2026-04-23 13:19 52.66753 -67.17929 33954 ft 515 kts 248°
2026-04-23 13:20 52.64692 -67.29204 33942 ft 515 kts 248°
2026-04-23 13:20 52.62615 -67.40498 33951 ft 512 kts 248°
2026-04-23 13:21 52.60535 -67.51741 33967 ft 514 kts 249°
2026-04-23 13:21 52.58444 -67.62974 33965 ft 513 kts 249°
2026-04-23 13:22 52.56337 -67.74228 33961 ft 511 kts 248°
2026-04-23 13:22 52.54220 -67.85461 33954 ft 512 kts 248°
2026-04-23 13:23 52.52097 -67.96663 33953 ft 512 kts 248°
2026-04-23 13:23 52.49976 -68.07793 33954 ft 508 kts 248°
2026-04-23 13:24 52.47835 -68.18951 33953 ft 511 kts 248°
2026-04-23 13:24 52.45688 -68.30082 33961 ft 512 kts 249°
2026-04-23 13:25 52.43528 -68.41217 33955 ft 510 kts 249°
2026-04-23 13:25 52.41369 -68.52280 33959 ft 509 kts 249°
2026-04-23 13:26 52.39201 -68.63325 33961 ft 508 kts 249°
2026-04-23 13:26 52.37011 -68.74419 33954 ft 506 kts 248°
2026-04-23 13:27 52.34810 -68.85506 33960 ft 507 kts 248°
2026-04-23 13:27 52.32601 -68.96564 33953 ft 508 kts 249°
2026-04-23 13:28 52.30367 -69.07694 33949 ft 506 kts 249°
2026-04-23 13:28 52.28155 -69.18645 33954 ft 505 kts 249°
2026-04-23 13:29 52.25932 -69.29591 33960 ft 508 kts 249°
2026-04-23 13:29 52.23705 -69.40497 33962 ft 507 kts 249°
2026-04-23 13:30 52.21463 -69.51415 33958 ft 506 kts 250°
2026-04-23 13:30 52.19226 -69.62253 33962 ft 504 kts 250°
2026-04-23 13:31 52.16971 -69.73113 33976 ft 504 kts 249°
2026-04-23 13:31 52.14705 -69.83971 33965 ft 503 kts 249°
2026-04-23 13:32 52.12431 -69.94804 33964 ft 503 kts 249°
2026-04-23 13:32 52.10141 -70.05660 33971 ft 502 kts 249°
2026-04-23 13:33 52.07859 -70.16422 33961 ft 501 kts 250°
2026-04-23 13:33 52.05563 -70.27188 33957 ft 503 kts 250°
2026-04-23 13:34 52.03260 -70.37930 33954 ft 503 kts 250°
2026-04-23 13:34 52.00942 -70.48686 33964 ft 501 kts 250°
2026-04-23 13:35 51.98632 -70.59347 33953 ft 502 kts 250°
2026-04-23 13:35 51.96289 -70.70110 33948 ft 500 kts 250°
2026-04-23 13:36 51.93969 -70.80711 33950 ft 499 kts 250°
2026-04-23 13:36 51.91625 -70.91362 33957 ft 499 kts 250°
2026-04-23 13:37 51.89279 -71.01968 33963 ft 498 kts 250°
2026-04-23 13:37 51.86897 -71.12688 33965 ft 500 kts 250°
2026-04-23 13:38 51.84519 -71.23328 33969 ft 499 kts 250°
2026-04-23 13:38 51.82113 -71.34043 33973 ft 498 kts 251°
2026-04-23 13:39 51.79734 -71.44582 33972 ft 497 kts 251°
2026-04-23 13:39 51.77292 -71.55344 33975 ft 497 kts 251°
2026-04-23 13:40 51.74893 -71.65868 33975 ft 496 kts 251°
2026-04-23 13:40 51.72498 -71.76321 33978 ft 496 kts 251°
2026-04-23 13:41 51.70071 -71.86859 33981 ft 494 kts 251°
2026-04-23 13:41 51.67656 -71.97298 33982 ft 494 kts 251°
2026-04-23 13:42 51.65242 -72.07677 33983 ft 493 kts 251°
2026-04-23 13:42 51.62810 -72.18084 33987 ft 494 kts 251°
2026-04-23 13:43 51.60355 -72.28539 33996 ft 493 kts 252°
2026-04-23 13:43 51.57921 -72.38853 34001 ft 493 kts 252°
2026-04-23 13:44 51.55470 -72.49191 34008 ft 492 kts 252°
2026-04-23 13:44 51.53011 -72.59515 34018 ft 490 kts 252°
2026-04-23 13:45 51.50547 -72.69811 34024 ft 490 kts 251°
2026-04-23 13:45 51.48071 -72.80106 34034 ft 491 kts 252°
2026-04-23 13:46 51.45614 -72.90276 34028 ft 490 kts 252°
2026-04-23 13:46 51.43145 -73.00446 34034 ft 489 kts 252°
2026-04-23 13:47 51.40652 -73.10669 34041 ft 488 kts 252°
2026-04-23 13:47 51.38160 -73.20839 34051 ft 488 kts 252°
2026-04-23 13:48 51.35665 -73.30975 34060 ft 487 kts 252°
2026-04-23 13:48 51.33168 -73.41074 34056 ft 487 kts 253°
2026-04-23 13:49 51.30650 -73.51208 34050 ft 486 kts 253°
2026-04-23 13:49 51.28117 -73.61361 34056 ft 486 kts 253°
2026-04-23 13:50 51.25602 -73.71394 34063 ft 485 kts 252°
2026-04-23 13:50 51.23067 -73.81458 34069 ft 484 kts 253°
2026-04-23 13:51 51.20513 -73.91557 34082 ft 483 kts 253°
2026-04-23 13:51 51.17965 -74.01581 34091 ft 480 kts 253°
2026-04-23 13:52 51.15421 -74.11553 34087 ft 482 kts 253°
2026-04-23 13:52 51.12877 -74.21474 34096 ft 480 kts 253°
2026-04-23 13:53 51.10687 -74.31480 34090 ft 472 kts 265°
2026-04-23 13:53 51.09464 -74.41708 34098 ft 469 kts 265°
2026-04-23 13:54 51.08165 -74.51968 34112 ft 470 kts 265°
2026-04-23 13:54 51.06796 -74.62225 34106 ft 468 kts 265°
2026-04-23 13:55 51.05404 -74.72352 34114 ft 470 kts 264°
2026-04-23 13:55 51.03988 -74.82455 34120 ft 466 kts 264°
2026-04-23 13:56 51.02558 -74.92534 34106 ft 465 kts 265°
2026-04-23 13:56 51.01105 -75.02681 34116 ft 466 kts 264°
2026-04-23 13:57 50.99650 -75.12745 34121 ft 463 kts 265°
2026-04-23 13:57 50.98192 -75.22778 34132 ft 468 kts 265°
2026-04-23 13:58 50.96723 -75.32774 34126 ft 458 kts 265°
2026-04-23 13:58 50.95256 -75.42747 34142 ft 465 kts 265°
2026-04-23 13:59 50.93782 -75.52644 34145 ft 460 kts 266°
2026-04-23 13:59 50.92307 -75.62530 34146 ft 460 kts 265°
2026-04-23 14:00 50.91060 -75.70815 34159 ft 456 kts 265°
2026-04-23 14:00 50.89324 -75.82309 34150 ft 461 kts 265°
2026-04-23 14:01 50.87816 -75.92198 34154 ft 459 kts 266°
2026-04-23 14:01 50.86302 -76.02075 34148 ft 453 kts 266°
2026-04-23 14:02 50.84804 -76.11794 34144 ft 456 kts 266°
2026-04-23 14:02 50.83292 -76.21538 34160 ft 450 kts 267°
2026-04-23 14:03 50.81770 -76.31288 34156 ft 449 kts 268°
2026-04-23 14:03 50.80278 -76.40781 34168 ft 445 kts 268°
2026-04-23 14:04 50.78770 -76.50346 34148 ft 441 kts 267°
2026-04-23 14:04 50.77269 -76.59823 34164 ft 449 kts 268°
2026-04-23 14:05 50.75730 -76.69442 34182 ft 442 kts 268°
2026-04-23 14:05 50.74226 -76.78773 34180 ft 434 kts 268°
2026-04-23 14:06 50.72706 -76.88237 34206 ft 442 kts 268°
2026-04-23 14:06 50.71937 -76.92938 34173 ft 431 kts 269°
2026-04-23 14:06 50.71189 -76.97521 34186 ft 430 kts 269°
2026-04-23 14:07 50.69684 -77.06754 34203 ft 429 kts 269°
2026-04-23 14:07 50.67417 -77.20568 34197 ft 433 kts 269°
2026-04-23 14:08 50.65906 -77.29663 34207 ft 426 kts 269°
2026-04-23 14:08 50.64397 -77.38721 34183 ft 419 kts 269°
2026-04-23 14:09 50.62894 -77.47718 34189 ft 419 kts 269°
2026-04-23 14:09 50.61395 -77.56639 34207 ft 421 kts 269°
2026-04-23 14:10 50.59897 -77.65490 34182 ft 418 kts 269°
2026-04-23 14:10 50.58382 -77.74410 34216 ft 415 kts 269°
2026-04-23 14:11 50.56870 -77.83274 34227 ft 417 kts 268°
2026-04-23 14:11 50.55379 -77.91931 34201 ft 411 kts 269°
2026-04-23 14:12 50.53868 -78.00705 34206 ft 409 kts 268°
2026-04-23 14:12 50.52370 -78.09343 34220 ft 410 kts 269°
2026-04-23 14:13 50.50837 -78.18175 34213 ft 416 kts 269°
2026-04-23 14:13 50.49303 -78.26903 34201 ft 407 kts 268°
2026-04-23 14:14 50.47779 -78.35582 34207 ft 412 kts 268°
2026-04-23 14:14 50.46240 -78.44285 34212 ft 414 kts 268°
2026-04-23 14:15 50.44679 -78.53059 34209 ft 410 kts 268°
2026-04-23 14:15 50.43115 -78.61820 34207 ft 411 kts 268°
2026-04-23 14:16 50.41553 -78.70542 34223 ft 417 kts 268°
2026-04-23 14:16 50.39966 -78.79327 34223 ft 412 kts 268°
2026-04-23 14:17 50.38377 -78.88107 34229 ft 415 kts 267°
2026-04-23 14:17 50.36791 -78.96808 34234 ft 412 kts 267°
2026-04-23 14:18 50.35189 -79.05585 34235 ft 418 kts 267°
2026-04-23 14:18 50.33575 -79.14355 34235 ft 415 kts 266°
2026-04-23 14:19 50.31966 -79.23054 34233 ft 413 kts 267°
2026-04-23 14:19 50.30331 -79.31885 34229 ft 416 kts 267°
2026-04-23 14:20 50.28695 -79.40653 34232 ft 414 kts 266°
2026-04-23 14:20 50.27073 -79.49318 34229 ft 415 kts 266°
2026-04-23 14:21 50.25423 -79.58083 34225 ft 415 kts 266°
2026-04-23 14:21 50.23790 -79.66719 34229 ft 416 kts 266°
2026-04-23 14:22 50.22111 -79.75571 34233 ft 418 kts 265°
2026-04-23 14:22 50.20441 -79.84318 34230 ft 418 kts 265°
2026-04-23 14:23 50.18757 -79.93097 34217 ft 419 kts 265°
2026-04-23 14:23 50.17065 -80.01879 34211 ft 418 kts 265°
2026-04-23 14:24 50.15364 -80.10683 34212 ft 422 kts 265°
2026-04-23 14:24 50.13658 -80.19447 34215 ft 420 kts 265°
2026-04-23 14:25 50.11929 -80.28314 34216 ft 422 kts 264°
2026-04-23 14:25 50.10194 -80.37132 34216 ft 416 kts 265°
2026-04-23 14:26 50.08474 -80.45889 34216 ft 423 kts 264°
2026-04-23 14:26 50.06738 -80.54633 34215 ft 417 kts 265°
2026-04-23 14:27 50.04993 -80.63418 34215 ft 417 kts 264°
2026-04-23 14:27 50.03259 -80.72102 34235 ft 421 kts 263°
2026-04-23 14:28 50.01509 -80.80819 34237 ft 418 kts 263°
2026-04-23 14:28 49.99740 -80.89594 34233 ft 418 kts 263°
2026-04-23 14:29 49.97982 -80.98278 34231 ft 416 kts 263°
2026-04-23 14:29 49.96205 -81.07025 34232 ft 422 kts 263°
2026-04-23 14:30 49.94426 -81.15729 34232 ft 419 kts 262°
2026-04-23 14:30 49.92654 -81.24367 34232 ft 419 kts 262°
2026-04-23 14:31 49.90863 -81.33063 34232 ft 422 kts 263°
2026-04-23 14:31 49.89054 -81.41799 34212 ft 420 kts 262°
2026-04-23 14:32 49.87248 -81.50489 34209 ft 421 kts 262°
2026-04-23 14:32 49.85415 -81.59278 34214 ft 426 kts 262°
2026-04-23 14:33 49.83589 -81.67968 34225 ft 419 kts 261°
2026-04-23 14:33 49.81762 -81.76662 34222 ft 426 kts 261°
2026-04-23 14:34 49.79930 -81.85312 34218 ft 420 kts 261°
2026-04-23 14:34 49.78085 -81.94007 34225 ft 424 kts 261°
2026-04-23 14:35 49.76225 -82.02718 34227 ft 422 kts 260°
2026-04-23 14:35 49.74356 -82.11454 34214 ft 427 kts 261°
2026-04-23 14:36 49.72489 -82.20121 34211 ft 421 kts 260°
2026-04-23 14:36 49.70614 -82.28809 34213 ft 426 kts 260°
2026-04-23 14:37 49.68737 -82.37460 34213 ft 425 kts 259°
2026-04-23 14:37 49.66841 -82.46156 34203 ft 423 kts 260°
2026-04-23 14:38 49.64933 -82.54878 34201 ft 426 kts 260°
2026-04-23 14:38 49.63021 -82.63580 34198 ft 425 kts 259°
2026-04-23 14:39 49.61099 -82.72296 34209 ft 429 kts 258°
2026-04-23 14:39 49.59178 -82.80957 34203 ft 425 kts 258°
2026-04-23 14:40 49.57249 -82.89632 34197 ft 426 kts 258°
2026-04-23 14:40 49.55359 -82.98091 34183 ft 426 kts 258°
2026-04-23 14:41 49.53478 -83.06473 34176 ft 423 kts 258°
2026-04-23 14:41 49.51552 -83.15034 34179 ft 427 kts 258°
2026-04-23 14:42 49.49610 -83.23617 34161 ft 423 kts 258°
2026-04-23 14:42 49.47669 -83.32172 34162 ft 426 kts 257°
2026-04-23 14:43 49.45716 -83.40737 34154 ft 426 kts 257°
2026-04-23 14:43 49.43765 -83.49262 34152 ft 429 kts 257°
2026-04-23 14:44 49.41797 -83.57820 34141 ft 425 kts 257°
2026-04-23 14:44 49.39816 -83.66414 34141 ft 431 kts 256°
2026-04-23 14:45 49.37826 -83.75000 34142 ft 428 kts 256°
2026-04-23 14:45 49.35828 -83.83591 34125 ft 428 kts 255°
2026-04-23 14:46 49.33808 -83.92245 34122 ft 431 kts 255°
2026-04-23 14:46 49.31798 -84.00817 34127 ft 431 kts 256°
2026-04-23 14:47 49.29846 -84.09108 34119 ft 429 kts 255°
2026-04-23 14:47 49.27812 -84.17721 34117 ft 433 kts 255°
2026-04-23 14:48 49.25768 -84.26331 34113 ft 430 kts 255°
2026-04-23 14:48 49.23726 -84.34907 34109 ft 431 kts 255°
2026-04-23 14:49 49.21681 -84.43463 34103 ft 434 kts 255°
2026-04-23 14:49 49.19588 -84.52182 34091 ft 435 kts 254°
2026-04-23 14:50 49.17531 -84.60713 34086 ft 434 kts 254°
2026-04-23 14:50 49.15502 -84.69103 34095 ft 436 kts 253°
2026-04-23 14:51 49.13435 -84.77613 34095 ft 436 kts 253°
2026-04-23 14:51 49.11356 -84.86140 34090 ft 438 kts 253°
2026-04-23 14:52 49.09307 -84.94515 34079 ft 436 kts 253°
2026-04-23 14:52 49.07201 -85.03090 34077 ft 438 kts 253°
2026-04-23 14:53 49.05112 -85.11558 34059 ft 437 kts 253°
2026-04-23 14:53 49.02995 -85.20111 34057 ft 439 kts 253°
2026-04-23 14:54 49.00883 -85.28606 34037 ft 439 kts 253°
2026-04-23 14:54 48.98770 -85.37077 34033 ft 439 kts 253°
2026-04-23 14:55 48.96637 -85.45599 34037 ft 437 kts 253°
2026-04-23 14:55 48.94509 -85.54067 34018 ft 440 kts 253°
2026-04-23 14:56 48.92395 -85.62445 34007 ft 439 kts 253°
2026-04-23 14:56 48.90231 -85.70990 34013 ft 441 kts 252°
2026-04-23 14:57 48.88074 -85.79477 33979 ft 438 kts 252°
2026-04-23 14:57 48.85917 -85.87929 33979 ft 438 kts 252°
2026-04-23 14:58 48.83744 -85.96416 33974 ft 438 kts 252°
2026-04-23 14:58 48.81573 -86.04863 33974 ft 438 kts 252°
2026-04-23 14:59 48.79385 -86.13345 33968 ft 439 kts 251°
2026-04-23 14:59 48.77181 -86.21856 33970 ft 438 kts 252°
2026-04-23 15:00 48.74994 -86.30265 33966 ft 437 kts 251°
2026-04-23 15:00 48.72602 -86.38617 34146 ft 447 kts 249°
2026-04-23 15:01 48.71378 -86.42796 34774 ft 444 kts 249°
2026-04-23 15:01 48.70210 -86.46768 35601 ft 436 kts 250°
2026-04-23 15:01 48.68972 -86.50973 35945 ft 436 kts 249°
2026-04-23 15:01 48.67750 -86.55112 35957 ft 433 kts 249°
2026-04-23 15:02 48.65318 -86.63324 35957 ft 430 kts 249°
2026-04-23 15:02 48.62925 -86.71371 35971 ft 428 kts 249°
2026-04-23 15:03 48.60484 -86.79552 35978 ft 428 kts 248°
2026-04-23 15:03 48.58040 -86.87714 35977 ft 428 kts 248°
2026-04-23 15:04 48.55605 -86.95815 35973 ft 426 kts 248°
2026-04-23 15:04 48.53148 -87.03966 35965 ft 427 kts 248°
2026-04-23 15:05 48.50691 -87.12090 35950 ft 428 kts 248°
2026-04-23 15:05 48.48240 -87.20164 35942 ft 429 kts 248°
2026-04-23 15:06 48.45753 -87.28329 35935 ft 429 kts 248°
2026-04-23 15:06 48.43257 -87.36498 35925 ft 430 kts 248°
2026-04-23 15:07 48.40756 -87.44659 35906 ft 431 kts 248°
2026-04-23 15:07 48.38235 -87.52855 35897 ft 432 kts 248°
2026-04-23 15:08 48.35731 -87.60969 35890 ft 431 kts 248°
2026-04-23 15:09 48.31929 -87.73245 35885 ft 434 kts 246°
2026-04-23 15:09 48.29378 -87.81441 35882 ft 433 kts 246°
2026-04-23 15:10 48.26815 -87.89653 35879 ft 435 kts 246°
2026-04-23 15:10 48.24249 -87.97850 35873 ft 436 kts 246°
2026-04-23 15:11 48.21672 -88.06052 35868 ft 436 kts 246°
2026-04-23 15:11 48.19105 -88.14196 35863 ft 437 kts 246°
2026-04-23 15:12 48.16510 -88.22403 35866 ft 436 kts 246°
2026-04-23 15:12 48.13911 -88.30594 35854 ft 437 kts 246°
2026-04-23 15:13 48.11343 -88.38661 35856 ft 437 kts 246°
2026-04-23 15:13 48.08731 -88.46842 35848 ft 437 kts 246°
2026-04-23 15:14 48.06097 -88.55066 35844 ft 439 kts 246°
2026-04-23 15:14 48.03483 -88.63199 35834 ft 439 kts 246°
2026-04-23 15:15 48.00826 -88.71439 35838 ft 442 kts 245°
2026-04-23 15:15 47.98209 -88.79531 35835 ft 440 kts 245°
2026-04-23 15:16 47.95536 -88.87768 35830 ft 441 kts 245°
2026-04-23 15:16 47.92869 -88.95960 35830 ft 441 kts 245°
2026-04-23 15:17 47.90211 -89.04099 35823 ft 441 kts 245°
2026-04-23 15:17 47.87558 -89.12196 35816 ft 440 kts 245°
2026-04-23 15:18 47.84877 -89.20353 35807 ft 441 kts 245°
2026-04-23 15:18 47.82188 -89.28508 35797 ft 440 kts 244°
2026-04-23 15:19 47.79503 -89.36626 35793 ft 441 kts 244°
2026-04-23 15:19 47.76796 -89.44785 35791 ft 440 kts 244°
2026-04-23 15:20 47.74088 -89.52917 35791 ft 440 kts 244°
2026-04-23 15:20 47.71379 -89.61030 35789 ft 440 kts 244°
2026-04-23 15:21 47.68679 -89.69090 35789 ft 440 kts 243°
2026-04-23 15:21 47.65989 -89.77096 35792 ft 441 kts 243°
2026-04-23 15:22 47.63301 -89.85071 35785 ft 438 kts 243°
2026-04-23 15:22 47.60626 -89.92982 35782 ft 440 kts 243°
2026-04-23 15:23 47.58008 -90.00703 35786 ft 439 kts 243°
2026-04-23 15:23 47.55241 -90.08837 35763 ft 437 kts 243°
2026-04-23 15:24 47.52505 -90.16855 35765 ft 438 kts 243°
2026-04-23 15:24 47.49788 -90.24794 35751 ft 435 kts 243°
2026-04-23 15:25 47.47051 -90.32767 35752 ft 437 kts 243°
2026-04-23 15:25 47.44323 -90.40688 35748 ft 436 kts 243°
2026-04-23 15:26 47.41569 -90.48659 35736 ft 437 kts 243°
2026-04-23 15:26 47.38823 -90.56584 35727 ft 435 kts 243°
2026-04-23 15:27 47.36066 -90.64518 35735 ft 436 kts 243°
2026-04-23 15:27 47.33336 -90.72351 35736 ft 435 kts 242°
2026-04-23 15:28 47.30589 -90.80209 35729 ft 433 kts 243°
2026-04-23 15:28 47.27830 -90.88077 35713 ft 434 kts 242°
2026-04-23 15:29 47.25067 -90.95933 35726 ft 433 kts 243°
2026-04-23 15:29 47.22300 -91.03774 35723 ft 433 kts 242°
2026-04-23 15:30 47.19550 -91.11546 35708 ft 431 kts 242°
2026-04-23 15:30 47.16804 -91.19287 35708 ft 433 kts 243°
2026-04-23 15:31 47.14022 -91.27103 35706 ft 433 kts 242°
2026-04-23 15:31 47.11250 -91.34869 35699 ft 432 kts 242°
2026-04-23 15:32 47.08473 -91.42627 35686 ft 431 kts 242°
2026-04-23 15:32 47.05715 -91.50307 35682 ft 431 kts 242°
2026-04-23 15:33 47.02952 -91.57981 35690 ft 430 kts 242°
2026-04-23 15:33 47.00215 -91.65559 35693 ft 432 kts 242°
2026-04-23 15:34 46.97463 -91.73158 35700 ft 433 kts 241°
2026-04-23 15:34 46.94759 -91.80603 35703 ft 434 kts 242°
2026-04-23 15:35 46.92028 -91.88103 35707 ft 433 kts 242°
2026-04-23 15:35 46.89162 -91.95950 35707 ft 434 kts 242°
2026-04-23 15:36 46.86249 -92.03902 35699 ft 431 kts 241°
2026-04-23 15:36 46.83414 -92.11618 35691 ft 432 kts 241°
2026-04-23 15:37 46.80558 -92.19370 35684 ft 431 kts 241°
2026-04-23 15:37 46.78268 -92.25841 35683 ft 434 kts 243°
2026-04-23 15:38 46.75103 -92.35041 35668 ft 433 kts 243°
2026-04-23 15:38 46.72386 -92.42891 35667 ft 432 kts 243°
2026-04-23 15:39 46.69627 -92.50825 35658 ft 432 kts 242°
2026-04-23 15:39 46.66900 -92.58640 35655 ft 434 kts 242°
2026-04-23 15:40 46.64133 -92.66540 35648 ft 432 kts 242°
2026-04-23 15:40 46.61365 -92.74421 35650 ft 435 kts 241°
2026-04-23 15:41 46.58581 -92.82319 35651 ft 433 kts 241°
2026-04-23 15:41 46.55817 -92.90139 35647 ft 433 kts 241°
2026-04-23 15:42 46.53043 -92.97960 35641 ft 432 kts 241°
2026-04-23 15:42 46.50268 -93.05766 35630 ft 433 kts 241°
2026-04-23 15:43 46.47490 -93.13555 35622 ft 433 kts 241°
2026-04-23 15:43 46.44725 -93.21287 35623 ft 431 kts 241°
2026-04-23 15:44 46.41928 -93.29087 35620 ft 432 kts 241°
2026-04-23 15:44 46.39148 -93.36814 35619 ft 431 kts 240°
2026-04-23 15:45 46.36361 -93.44540 35612 ft 430 kts 240°
2026-04-23 15:45 46.33586 -93.52212 35616 ft 432 kts 240°
2026-04-23 15:46 46.30779 -93.59947 35603 ft 430 kts 240°
2026-04-23 15:46 46.27977 -93.67648 35611 ft 429 kts 240°
2026-04-23 15:47 46.25169 -93.75343 35601 ft 430 kts 240°
2026-04-23 15:47 46.22378 -93.82971 35601 ft 429 kts 239°
2026-04-23 15:48 46.19565 -93.90636 35601 ft 429 kts 239°
2026-04-23 15:48 46.16769 -93.98231 35608 ft 429 kts 239°
2026-04-23 15:49 46.13963 -94.05836 35604 ft 428 kts 239°
2026-04-23 15:49 46.11149 -94.13441 35590 ft 427 kts 239°
2026-04-23 15:50 46.08355 -94.20968 35587 ft 427 kts 239°
2026-04-23 15:50 46.05533 -94.28550 35581 ft 426 kts 239°
2026-04-23 15:51 46.02721 -94.36084 35575 ft 427 kts 239°
2026-04-23 15:51 45.99896 -94.43633 35575 ft 427 kts 239°
2026-04-23 15:52 45.97084 -94.51125 35574 ft 427 kts 238°
2026-04-23 15:52 45.94241 -94.58678 35564 ft 425 kts 238°
2026-04-23 15:53 45.91421 -94.66149 35577 ft 426 kts 238°
2026-04-23 15:53 45.88564 -94.73701 35589 ft 425 kts 238°
2026-04-23 15:54 45.85731 -94.81168 35475 ft 424 kts 238°
2026-04-23 15:54 45.82888 -94.88639 35570 ft 427 kts 238°
2026-04-23 15:55 45.80040 -94.96104 35571 ft 427 kts 238°
2026-04-23 15:55 45.77182 -95.03574 35567 ft 425 kts 238°
2026-04-23 15:56 45.74320 -95.11034 35567 ft 426 kts 238°
2026-04-23 15:56 45.71462 -95.18465 35563 ft 423 kts 237°
2026-04-23 15:57 45.68616 -95.25844 35556 ft 423 kts 237°
2026-04-23 15:57 45.65755 -95.33240 35558 ft 423 kts 237°
2026-04-23 15:58 45.62901 -95.40600 35551 ft 423 kts 237°
2026-04-23 15:58 45.60036 -95.47968 35547 ft 423 kts 237°
2026-04-23 15:59 45.57183 -95.55286 35549 ft 423 kts 237°
2026-04-23 15:59 45.54308 -95.62640 35547 ft 422 kts 237°
2026-04-23 16:00 45.51432 -95.69978 35551 ft 421 kts 236°
2026-04-23 16:00 45.48561 -95.77284 35546 ft 421 kts 236°
2026-04-23 16:01 45.45698 -95.84551 35545 ft 421 kts 236°
2026-04-23 16:01 45.42810 -95.91860 35543 ft 420 kts 236°
2026-04-23 16:02 45.39941 -95.99105 35535 ft 417 kts 236°
2026-04-23 16:02 45.37082 -96.06304 35532 ft 419 kts 236°
2026-04-23 16:03 45.34208 -96.13523 35532 ft 417 kts 236°
2026-04-23 16:03 45.31319 -96.20757 35527 ft 418 kts 236°
2026-04-23 16:04 45.28429 -96.27979 35522 ft 417 kts 236°
2026-04-23 16:04 45.25559 -96.35130 35519 ft 418 kts 236°
2026-04-23 16:05 45.23130 -96.41168 35522 ft 417 kts 236°
2026-04-23 16:05 45.19761 -96.49525 35524 ft 418 kts 236°
2026-04-23 16:06 45.16852 -96.56718 35533 ft 416 kts 236°
2026-04-23 16:06 45.13952 -96.63871 35533 ft 416 kts 236°
2026-04-23 16:07 45.11071 -96.70960 35537 ft 414 kts 235°
2026-04-23 16:07 45.08170 -96.78081 35543 ft 414 kts 235°
2026-04-23 16:08 45.05290 -96.85129 35537 ft 412 kts 235°
2026-04-23 16:08 45.02387 -96.92217 35542 ft 414 kts 235°
2026-04-23 16:09 44.99487 -96.99280 35551 ft 414 kts 235°
2026-04-23 16:09 44.96564 -97.06381 35544 ft 413 kts 235°
2026-04-23 16:10 44.93678 -97.13374 35551 ft 415 kts 235°
2026-04-23 16:10 44.90772 -97.20400 35541 ft 413 kts 235°
2026-04-23 16:11 44.87835 -97.27480 35550 ft 413 kts 235°
2026-04-23 16:11 44.84919 -97.34495 35561 ft 413 kts 235°
2026-04-23 16:12 44.81992 -97.41519 35561 ft 412 kts 235°
2026-04-23 16:12 44.79066 -97.48522 35560 ft 412 kts 235°
2026-04-23 16:13 44.76118 -97.55559 35557 ft 413 kts 235°
2026-04-23 16:13 44.71711 -97.66046 35560 ft 413 kts 234°
2026-04-23 16:14 44.68777 -97.73010 35569 ft 413 kts 234°
2026-04-23 16:14 44.65825 -97.79997 35560 ft 412 kts 234°
2026-04-23 16:15 44.62880 -97.86951 35556 ft 413 kts 234°
2026-04-23 16:15 44.59919 -97.93923 35559 ft 412 kts 234°
2026-04-23 16:16 44.56949 -98.00904 35562 ft 411 kts 234°
2026-04-23 16:16 44.53990 -98.07838 35549 ft 411 kts 234°
2026-04-23 16:17 44.51036 -98.14745 35548 ft 411 kts 234°
2026-04-23 16:17 44.48069 -98.21664 35547 ft 411 kts 234°
2026-04-23 16:18 44.45099 -98.28575 35545 ft 411 kts 234°
2026-04-23 16:18 44.42054 -98.35442 35548 ft 412 kts 234°
2026-04-23 16:19 44.38988 -98.42237 35558 ft 410 kts 233°
2026-04-23 16:19 44.35899 -98.49066 35546 ft 412 kts 233°
2026-04-23 16:20 44.32838 -98.55817 35552 ft 411 kts 233°
2026-04-23 16:20 44.29744 -98.62623 35554 ft 410 kts 233°
2026-04-23 16:21 44.26654 -98.69405 35550 ft 411 kts 232°
2026-04-23 16:21 44.23577 -98.76142 35562 ft 412 kts 232°
2026-04-23 16:22 44.20458 -98.82954 35553 ft 413 kts 233°
2026-04-23 16:22 44.17345 -98.89737 35555 ft 413 kts 233°
2026-04-23 16:23 44.14226 -98.96520 35581 ft 415 kts 233°
2026-04-23 16:23 44.11077 -99.03349 35562 ft 413 kts 233°
2026-04-23 16:24 44.07966 -99.10085 35590 ft 414 kts 233°
2026-04-23 16:24 44.04808 -99.16900 35573 ft 414 kts 233°
2026-04-23 16:25 44.01662 -99.23676 35573 ft 417 kts 233°
2026-04-23 16:25 43.98479 -99.30517 35596 ft 416 kts 234°
2026-04-23 16:26 43.95338 -99.37252 35577 ft 413 kts 233°
2026-04-23 16:26 43.92146 -99.44076 35569 ft 417 kts 233°
2026-04-23 16:27 43.88992 -99.50806 35549 ft 416 kts 234°
2026-04-23 16:27 43.85792 -99.57620 35575 ft 418 kts 233°
2026-04-23 16:28 43.82619 -99.64359 35589 ft 417 kts 233°
2026-04-23 16:28 43.79409 -99.71161 35601 ft 418 kts 233°
2026-04-23 16:29 43.76210 -99.77924 35568 ft 421 kts 233°
2026-04-23 16:29 43.73000 -99.84697 35614 ft 418 kts 233°
2026-04-23 16:30 43.69768 -99.91496 35608 ft 421 kts 233°
2026-04-23 16:30 43.68137 -99.94923 35833 ft 420 kts 234°
2026-04-23 16:30 43.66530 -99.98297 35639 ft 417 kts 233°
2026-04-23 16:31 43.63358 -100.04942 35625 ft 417 kts 233°
2026-04-23 16:31 43.60133 -100.11678 35619 ft 416 kts 233°
2026-04-23 16:32 43.56922 -100.18374 35638 ft 418 kts 233°
2026-04-23 16:32 43.53693 -100.25092 35626 ft 416 kts 233°
2026-04-23 16:33 43.50462 -100.31796 35634 ft 421 kts 233°
2026-04-23 16:33 43.47231 -100.38488 35628 ft 419 kts 234°
2026-04-23 16:34 43.43988 -100.45190 35634 ft 417 kts 233°
2026-04-23 16:34 43.40754 -100.51856 35641 ft 419 kts 234°
2026-04-23 16:35 43.37503 -100.58542 35640 ft 422 kts 234°
2026-04-23 16:35 43.34241 -100.65235 35631 ft 419 kts 233°
2026-04-23 16:36 43.30958 -100.71957 35656 ft 422 kts 233°
2026-04-23 16:36 43.27655 -100.78706 35666 ft 421 kts 233°
2026-04-23 16:37 43.24395 -100.85349 35664 ft 423 kts 233°
2026-04-23 16:37 43.21070 -100.92109 35679 ft 424 kts 233°
2026-04-23 16:38 43.17793 -100.98759 35672 ft 424 kts 234°
2026-04-23 16:38 43.14477 -101.05471 35685 ft 425 kts 234°
2026-04-23 16:39 43.11141 -101.12209 35677 ft 425 kts 234°
2026-04-23 16:39 43.07805 -101.18933 35671 ft 424 kts 234°
2026-04-23 16:40 43.04491 -101.25594 35679 ft 424 kts 234°
2026-04-23 16:40 43.01150 -101.32297 35676 ft 423 kts 234°
2026-04-23 16:41 42.97818 -101.38966 35665 ft 425 kts 234°
2026-04-23 16:41 42.94456 -101.45680 35667 ft 424 kts 234°
2026-04-23 16:42 42.91119 -101.52329 35682 ft 424 kts 234°
2026-04-23 16:42 42.87754 -101.59019 35696 ft 427 kts 235°
2026-04-23 16:43 42.84382 -101.65708 35695 ft 427 kts 234°
2026-04-23 16:43 42.80989 -101.72423 35708 ft 427 kts 234°
2026-04-23 16:44 42.77603 -101.79110 35715 ft 429 kts 234°
2026-04-23 16:44 42.74217 -101.85783 35727 ft 429 kts 234°
2026-04-23 16:45 42.70797 -101.92506 35720 ft 429 kts 234°
2026-04-23 16:45 42.67366 -101.99236 35724 ft 430 kts 234°
2026-04-23 16:46 42.63935 -102.05951 35734 ft 431 kts 234°
2026-04-23 16:46 42.60524 -102.12610 35728 ft 430 kts 234°
2026-04-23 16:47 42.57073 -102.19334 35718 ft 431 kts 234°
2026-04-23 16:47 42.53648 -102.25991 35732 ft 431 kts 235°
2026-04-23 16:48 42.50193 -102.32695 35732 ft 433 kts 234°
2026-04-23 16:48 42.46696 -102.39462 35736 ft 433 kts 235°
2026-04-23 16:49 42.43245 -102.46125 35734 ft 434 kts 234°
2026-04-23 16:49 42.39777 -102.52807 35742 ft 432 kts 234°
2026-04-23 16:50 42.36285 -102.59520 35742 ft 433 kts 235°
2026-04-23 16:50 42.32794 -102.66217 35752 ft 434 kts 234°
2026-04-23 16:51 42.29317 -102.72871 35767 ft 433 kts 234°
2026-04-23 16:51 42.25812 -102.79563 35763 ft 435 kts 234°
2026-04-23 16:52 42.22314 -102.86229 35768 ft 434 kts 234°
2026-04-23 16:52 42.18813 -102.92885 35771 ft 433 kts 234°
2026-04-23 16:53 42.15296 -102.99558 35769 ft 436 kts 234°
2026-04-23 16:53 42.11770 -103.06232 35769 ft 434 kts 234°
2026-04-23 16:54 42.08257 -103.12866 35774 ft 434 kts 234°
2026-04-23 16:54 42.04735 -103.19503 35780 ft 434 kts 234°
2026-04-23 16:55 42.01232 -103.26090 35778 ft 432 kts 235°
2026-04-23 16:55 41.97706 -103.32707 35777 ft 435 kts 235°
2026-04-23 16:56 41.94173 -103.39320 35784 ft 433 kts 235°
2026-04-23 16:56 41.90648 -103.45913 35791 ft 433 kts 236°
2026-04-23 16:57 41.88064 -103.53205 35800 ft 436 kts 252°
2026-04-23 16:57 41.86289 -103.60979 35799 ft 435 kts 252°
2026-04-23 16:58 41.84501 -103.68669 35803 ft 434 kts 251°
2026-04-23 16:58 41.82663 -103.76454 35813 ft 435 kts 251°
2026-04-23 16:59 41.80830 -103.84141 35818 ft 434 kts 251°
2026-04-23 16:59 41.78968 -103.91896 35818 ft 437 kts 251°
2026-04-23 17:00 41.77101 -103.99634 35813 ft 436 kts 251°
2026-04-23 17:00 41.75219 -104.07400 35822 ft 438 kts 251°
2026-04-23 17:01 41.73328 -104.15177 35815 ft 436 kts 251°
2026-04-23 17:01 41.71447 -104.22885 35816 ft 435 kts 251°
2026-04-23 17:02 41.69554 -104.30613 35817 ft 434 kts 251°
2026-04-23 17:02 41.67659 -104.38325 35832 ft 437 kts 251°
2026-04-23 17:03 41.65746 -104.46083 35831 ft 436 kts 251°
2026-04-23 17:03 41.63837 -104.53802 35829 ft 435 kts 252°
2026-04-23 17:04 41.61909 -104.61569 35822 ft 436 kts 252°
2026-04-23 17:04 41.59993 -104.69263 35836 ft 439 kts 251°
2026-04-23 17:05 41.58058 -104.77008 35834 ft 437 kts 251°
2026-04-23 17:05 41.56118 -104.84747 35835 ft 438 kts 251°
2026-04-23 17:06 41.54186 -104.92429 35834 ft 438 kts 251°
2026-04-23 17:06 41.52236 -105.00160 35831 ft 439 kts 251°
2026-04-23 17:07 41.50275 -105.07909 35836 ft 439 kts 251°
2026-04-23 17:07 41.48322 -105.15597 35837 ft 438 kts 251°
2026-04-23 17:08 41.46351 -105.23333 35829 ft 439 kts 251°
2026-04-23 17:08 41.44373 -105.31073 35843 ft 442 kts 251°
2026-04-23 17:09 41.42378 -105.38854 35842 ft 439 kts 251°
2026-04-23 17:09 41.40391 -105.46577 35845 ft 440 kts 251°
2026-04-23 17:10 41.38415 -105.54235 35863 ft 441 kts 251°
2026-04-23 17:10 41.36400 -105.62018 35880 ft 443 kts 252°
2026-04-23 17:11 41.34238 -105.69672 35889 ft 440 kts 243°
2026-04-23 17:11 41.30638 -105.76336 36047 ft 452 kts 230°
2026-04-23 17:12 41.28523 -105.79406 36578 ft 449 kts 229°
2026-04-23 17:12 41.26422 -105.82421 37280 ft 440 kts 229°
2026-04-23 17:12 41.24361 -105.85366 37761 ft 436 kts 228°
2026-04-23 17:12 41.22276 -105.88336 37888 ft 440 kts 229°
2026-04-23 17:13 41.18047 -105.94331 37913 ft 444 kts 228°
2026-04-23 17:13 41.13786 -106.00346 37921 ft 445 kts 228°
2026-04-23 17:14 41.09552 -106.06301 37922 ft 443 kts 228°
2026-04-23 17:14 41.05280 -106.12298 37913 ft 445 kts 228°
2026-04-23 17:15 41.01004 -106.18283 37917 ft 444 kts 229°
2026-04-23 17:15 40.96771 -106.24200 37913 ft 446 kts 229°
2026-04-23 17:16 40.92469 -106.30196 37914 ft 446 kts 229°
2026-04-23 17:16 40.88211 -106.36121 37931 ft 447 kts 229°
2026-04-23 17:17 40.83921 -106.42078 37923 ft 447 kts 229°
2026-04-23 17:17 40.79658 -106.47984 37951 ft 444 kts 229°
2026-04-23 17:18 40.73198 -106.56914 37949 ft 445 kts 229°
2026-04-23 17:19 40.68907 -106.62831 37942 ft 446 kts 229°
2026-04-23 17:19 40.64622 -106.68729 37956 ft 446 kts 229°
2026-04-23 17:20 40.60304 -106.74657 37965 ft 444 kts 229°
2026-04-23 17:21 40.51702 -106.86437 38011 ft 445 kts 229°
2026-04-23 17:21 40.45357 -106.95094 37997 ft 444 kts 229°
2026-04-23 17:22 40.38871 -107.03920 38020 ft 446 kts 229°
2026-04-23 17:23 40.32392 -107.12709 38037 ft 445 kts 229°
2026-04-23 17:24 40.25938 -107.21439 38019 ft 444 kts 229°
2026-04-23 17:24 40.19482 -107.30145 37975 ft 443 kts 230°
2026-04-23 17:25 40.13057 -107.38785 37983 ft 442 kts 230°
2026-04-23 17:26 40.04416 -107.50366 37989 ft 443 kts 230°
2026-04-23 17:27 39.97928 -107.59032 37991 ft 444 kts 230°
2026-04-23 17:27 39.93603 -107.64793 38005 ft 443 kts 230°
2026-04-23 17:28 39.89296 -107.70521 38016 ft 443 kts 229°
2026-04-23 17:28 39.84989 -107.76238 38031 ft 440 kts 230°
2026-04-23 17:29 39.80676 -107.81952 38023 ft 441 kts 229°
2026-04-23 17:30 39.74906 -107.89580 38023 ft 441 kts 230°
2026-04-23 17:30 39.67701 -107.99078 38045 ft 442 kts 230°
2026-04-23 17:31 39.63380 -108.04758 38044 ft 440 kts 230°
2026-04-23 17:31 39.59046 -108.10445 38051 ft 442 kts 230°
2026-04-23 17:32 39.54717 -108.16116 38042 ft 440 kts 230°
2026-04-23 17:32 39.50400 -108.21759 38050 ft 439 kts 230°
2026-04-23 17:33 39.46077 -108.27401 38049 ft 442 kts 230°
2026-04-23 17:33 39.41778 -108.33000 38054 ft 438 kts 230°
2026-04-23 17:34 39.37451 -108.38625 38054 ft 438 kts 230°
2026-04-23 17:35 39.30941 -108.47069 38047 ft 438 kts 230°
2026-04-23 17:35 39.24429 -108.55490 38063 ft 437 kts 230°
2026-04-23 17:36 39.20132 -108.61037 38050 ft 437 kts 230°
2026-04-23 17:36 39.15813 -108.66599 38036 ft 436 kts 230°
2026-04-23 17:37 39.11451 -108.72208 38062 ft 436 kts 230°
2026-04-23 17:38 39.04990 -108.80523 38065 ft 432 kts 232°
2026-04-23 17:38 39.01013 -108.86301 38047 ft 432 kts 234°
2026-04-23 17:39 38.97049 -108.92077 38032 ft 431 kts 233°
2026-04-23 17:39 38.93070 -108.97837 38058 ft 430 kts 233°
2026-04-23 17:40 38.89065 -109.03611 38039 ft 430 kts 234°
2026-04-23 17:40 38.85073 -109.09347 38046 ft 428 kts 234°
2026-04-23 17:41 38.81069 -109.15089 38036 ft 427 kts 234°
2026-04-23 17:41 38.75105 -109.23619 38034 ft 429 kts 234°
2026-04-23 17:42 38.69137 -109.32130 38012 ft 428 kts 234°
2026-04-23 17:43 38.65125 -109.37838 38023 ft 427 kts 234°
2026-04-23 17:43 38.61176 -109.43443 38044 ft 424 kts 234°
2026-04-23 17:44 38.57192 -109.49092 38033 ft 421 kts 234°
2026-04-23 17:44 38.51257 -109.57489 38042 ft 423 kts 234°
2026-04-23 17:45 38.45310 -109.65877 38049 ft 422 kts 234°
2026-04-23 17:46 38.39356 -109.74255 38083 ft 422 kts 234°
2026-04-23 17:46 38.35399 -109.79808 38088 ft 419 kts 234°
2026-04-23 17:47 38.31481 -109.85300 38082 ft 420 kts 234°
2026-04-23 17:48 38.25575 -109.93558 38084 ft 418 kts 234°
2026-04-23 17:48 38.21653 -109.99030 38081 ft 417 kts 234°
2026-04-23 17:49 38.17722 -110.04507 38073 ft 416 kts 234°
2026-04-23 17:49 38.13795 -110.09966 38070 ft 415 kts 235°
2026-04-23 17:50 38.09872 -110.15413 38072 ft 414 kts 235°
2026-04-23 17:50 38.04046 -110.23484 38064 ft 413 kts 235°
2026-04-23 17:51 38.00153 -110.28863 38090 ft 408 kts 235°
2026-04-23 17:52 37.94343 -110.36877 38083 ft 409 kts 236°
2026-04-23 17:52 37.88555 -110.44839 38085 ft 404 kts 236°
2026-04-23 17:53 37.82770 -110.52782 38094 ft 406 kts 235°
2026-04-23 17:54 37.78948 -110.58015 38087 ft 404 kts 236°
2026-04-23 17:54 37.73174 -110.65909 38089 ft 403 kts 234°
2026-04-23 17:55 37.67413 -110.73762 38104 ft 401 kts 235°
2026-04-23 17:56 37.63578 -110.78982 38089 ft 403 kts 235°
2026-04-23 17:56 37.57848 -110.86763 38095 ft 401 kts 235°
2026-04-23 17:57 37.54039 -110.91924 38106 ft 397 kts 235°
2026-04-23 17:58 37.48364 -110.99602 38065 ft 399 kts 235°
2026-04-23 17:58 37.44564 -111.04729 38088 ft 396 kts 235°
2026-04-23 17:59 37.40800 -111.09802 38097 ft 395 kts 234°
2026-04-23 17:59 37.36983 -111.14938 38097 ft 396 kts 234°
2026-04-23 18:00 37.33195 -111.20026 38097 ft 396 kts 235°
2026-04-23 18:00 37.29414 -111.25097 38070 ft 396 kts 235°
2026-04-23 18:01 37.25628 -111.30167 38090 ft 396 kts 235°
2026-04-23 18:01 37.21873 -111.35186 38103 ft 394 kts 235°
2026-04-23 18:02 37.18731 -111.39382 38078 ft 394 kts 234°
2026-04-23 18:02 37.14325 -111.45255 38097 ft 394 kts 235°
2026-04-23 18:03 37.10561 -111.50264 38091 ft 392 kts 234°
2026-04-23 18:03 37.06806 -111.55253 38093 ft 393 kts 235°
2026-04-23 18:04 37.03038 -111.60251 38089 ft 392 kts 235°
2026-04-23 18:04 36.99271 -111.65241 38079 ft 393 kts 234°
2026-04-23 18:05 36.95501 -111.70228 38109 ft 393 kts 234°
2026-04-23 18:05 36.91719 -111.75223 38108 ft 393 kts 234°
2026-04-23 18:06 36.87940 -111.80205 38108 ft 392 kts 234°
2026-04-23 18:06 36.84154 -111.85189 38108 ft 393 kts 234°
2026-04-23 18:07 36.80363 -111.90171 38094 ft 392 kts 234°
2026-04-23 18:07 36.76562 -111.95161 38092 ft 394 kts 233°
2026-04-23 18:08 36.73370 -111.99343 38095 ft 396 kts 234°
2026-04-23 18:08 36.68900 -112.05193 38093 ft 395 kts 233°
2026-04-23 18:09 36.65073 -112.10191 38086 ft 394 kts 233°
2026-04-23 18:09 36.61252 -112.15176 38085 ft 398 kts 233°
2026-04-23 18:10 36.57398 -112.20193 38077 ft 395 kts 233°
2026-04-23 18:10 36.53566 -112.25178 38070 ft 397 kts 233°
2026-04-23 18:11 36.49716 -112.30176 38071 ft 397 kts 233°
2026-04-23 18:11 36.45873 -112.35156 38077 ft 397 kts 233°
2026-04-23 18:12 36.42057 -112.40095 38088 ft 396 kts 233°
2026-04-23 18:12 36.38194 -112.45088 38095 ft 397 kts 233°
2026-04-23 18:13 36.34340 -112.50061 38099 ft 395 kts 233°
2026-04-23 18:13 36.30506 -112.55001 38101 ft 397 kts 233°
2026-04-23 18:13 36.28580 -112.57479 38250 ft 396 kts 233°
2026-04-23 18:14 36.26646 -112.59966 37904 ft 396 kts 233°
2026-04-23 18:14 36.24730 -112.62427 38269 ft 396 kts 233°
2026-04-23 18:14 36.22820 -112.64883 38086 ft 400 kts 233°
2026-04-23 18:15 36.18929 -112.69872 38118 ft 398 kts 232°
2026-04-23 18:15 36.15070 -112.74815 38117 ft 398 kts 232°
2026-04-23 18:16 36.11185 -112.79781 38127 ft 398 kts 232°
2026-04-23 18:16 36.07320 -112.84716 38131 ft 397 kts 232°
2026-04-23 18:17 36.01501 -112.92132 38112 ft 399 kts 232°
2026-04-23 18:17 35.97593 -112.97102 38117 ft 398 kts 232°
2026-04-23 18:18 35.93696 -113.02053 38104 ft 401 kts 232°
2026-04-23 18:18 35.89805 -113.06987 38110 ft 400 kts 232°
2026-04-23 18:19 35.85876 -113.11962 38112 ft 400 kts 232°
2026-04-23 18:19 35.81985 -113.16881 38112 ft 399 kts 232°
2026-04-23 18:20 35.78035 -113.21867 38111 ft 400 kts 232°
2026-04-23 18:20 35.74066 -113.26869 38112 ft 400 kts 232°
2026-04-23 18:21 35.70176 -113.31767 38106 ft 400 kts 232°
2026-04-23 18:21 35.66209 -113.36752 38111 ft 400 kts 232°
2026-04-23 18:22 35.62271 -113.41694 38101 ft 402 kts 232°
2026-04-23 18:22 35.58338 -113.46621 38094 ft 401 kts 232°
2026-04-23 18:23 35.52424 -113.54018 38094 ft 403 kts 232°
2026-04-23 18:24 35.46508 -113.61398 38090 ft 401 kts 232°
2026-04-23 18:25 35.40586 -113.68772 38098 ft 400 kts 231°
2026-04-23 18:25 35.36617 -113.73705 38098 ft 403 kts 231°
2026-04-23 18:26 35.32656 -113.78621 38090 ft 404 kts 231°
2026-04-23 18:26 35.28681 -113.83544 38087 ft 400 kts 231°
2026-04-23 18:27 35.24704 -113.88467 38083 ft 405 kts 231°
2026-04-23 18:27 35.20732 -113.93371 38073 ft 400 kts 231°
2026-04-23 18:28 35.16788 -113.98238 38075 ft 405 kts 231°
2026-04-23 18:28 35.12810 -114.03137 38073 ft 403 kts 231°
2026-04-23 18:29 35.08817 -114.08048 38069 ft 403 kts 231°
2026-04-23 18:29 35.04846 -114.12926 38065 ft 404 kts 231°
2026-04-23 18:30 35.00850 -114.17827 38056 ft 407 kts 231°
2026-04-23 18:30 34.96852 -114.22721 38039 ft 403 kts 231°
2026-04-23 18:31 34.92873 -114.27586 38022 ft 403 kts 231°
2026-04-23 18:31 34.88876 -114.32468 38017 ft 404 kts 231°
2026-04-23 18:32 34.84867 -114.37354 38003 ft 405 kts 231°
2026-04-23 18:32 34.80850 -114.42245 37991 ft 405 kts 231°
2026-04-23 18:33 34.76834 -114.47118 37980 ft 407 kts 230°
2026-04-23 18:33 34.72697 -114.51881 37977 ft 404 kts 229°
2026-04-23 18:34 34.68525 -114.56654 37986 ft 405 kts 229°
2026-04-23 18:34 34.64370 -114.61401 37993 ft 405 kts 229°
2026-04-23 18:35 34.60217 -114.66138 38012 ft 405 kts 229°
2026-04-23 18:35 34.56031 -114.70905 38019 ft 406 kts 229°
2026-04-23 18:36 34.51887 -114.75618 38015 ft 403 kts 229°
2026-04-23 18:36 34.47745 -114.80323 38017 ft 405 kts 229°
2026-04-23 18:37 34.43618 -114.85002 38017 ft 402 kts 229°
2026-04-23 18:37 34.39458 -114.89716 38018 ft 405 kts 228°
2026-04-23 18:38 34.35340 -114.94371 38009 ft 402 kts 228°
2026-04-23 18:38 34.31196 -114.99051 38002 ft 402 kts 228°
2026-04-23 18:39 34.27040 -115.03739 37995 ft 404 kts 228°
2026-04-23 18:39 34.22879 -115.08424 37992 ft 402 kts 228°
2026-04-23 18:40 34.18761 -115.13055 37996 ft 403 kts 228°
2026-04-23 18:40 34.14663 -115.17656 37991 ft 403 kts 228°
2026-04-23 18:41 34.10543 -115.22276 37983 ft 404 kts 228°
2026-04-23 18:41 34.06544 -115.26753 37984 ft 401 kts 228°
2026-04-23 18:42 34.02415 -115.31372 37993 ft 402 kts 228°
2026-04-23 18:42 33.98317 -115.35948 38006 ft 403 kts 228°
2026-04-23 18:43 33.94167 -115.40575 38007 ft 400 kts 228°
2026-04-23 18:43 33.90017 -115.45199 38009 ft 401 kts 228°
2026-04-23 18:44 33.85898 -115.49778 38027 ft 401 kts 228°
2026-04-23 18:44 33.81759 -115.54375 37592 ft 397 kts 228°
2026-04-23 18:44 33.79708 -115.56650 36774 ft 398 kts 228°
2026-04-23 18:45 33.77630 -115.58955 35910 ft 399 kts 228°
2026-04-23 18:45 33.75591 -115.61214 35135 ft 399 kts 228°
2026-04-23 18:45 33.73520 -115.63507 34367 ft 399 kts 227°
2026-04-23 18:45 33.71476 -115.65768 33607 ft 399 kts 227°
2026-04-23 18:46 33.69423 -115.68039 32831 ft 400 kts 227°
2026-04-23 18:46 33.67370 -115.70309 32004 ft 408 kts 227°
2026-04-23 18:46 33.65192 -115.72720 31114 ft 428 kts 227°
2026-04-23 18:46 33.62998 -115.75162 30452 ft 425 kts 229°
2026-04-23 18:47 33.61112 -115.77821 29997 ft 412 kts 237°
2026-04-23 18:47 33.59443 -115.80675 29481 ft 407 kts 238°
2026-04-23 18:47 33.57837 -115.83466 28949 ft 405 kts 238°
2026-04-23 18:47 33.56213 -115.86286 28392 ft 406 kts 238°
2026-04-23 18:48 33.54595 -115.89092 27826 ft 405 kts 238°
2026-04-23 18:48 33.52994 -115.91863 27261 ft 403 kts 238°
2026-04-23 18:48 33.51373 -115.94667 26692 ft 401 kts 238°
2026-04-23 18:48 33.49777 -115.97425 26126 ft 399 kts 238°
2026-04-23 18:49 33.48190 -116.00165 25561 ft 399 kts 239°
2026-04-23 18:49 33.46602 -116.02904 24999 ft 397 kts 238°
2026-04-23 18:49 33.45019 -116.05631 24442 ft 395 kts 238°
2026-04-23 18:49 33.43462 -116.08313 23886 ft 394 kts 238°
2026-04-23 18:50 33.42427 -116.10093 23521 ft 392 kts 239°
2026-04-23 18:50 33.40350 -116.13665 22788 ft 390 kts 238°
2026-04-23 18:50 33.38783 -116.16348 22233 ft 388 kts 237°
2026-04-23 18:50 33.36981 -116.18783 21678 ft 390 kts 228°
2026-04-23 18:51 33.34971 -116.20947 21123 ft 389 kts 226°
2026-04-23 18:51 33.32951 -116.23074 20565 ft 386 kts 226°
2026-04-23 18:51 33.30920 -116.25209 20007 ft 383 kts 226°
2026-04-23 18:51 33.28911 -116.27320 19473 ft 379 kts 226°
2026-04-23 18:52 33.26954 -116.29376 18938 ft 376 kts 226°
2026-04-23 18:52 33.24983 -116.31447 18393 ft 374 kts 226°
2026-04-23 18:52 33.23011 -116.33516 17859 ft 371 kts 226°
2026-04-23 18:52 33.21091 -116.35529 17320 ft 368 kts 226°
2026-04-23 18:53 33.19148 -116.37566 16769 ft 366 kts 226°
2026-04-23 18:53 33.17249 -116.39555 16214 ft 364 kts 226°
2026-04-23 18:53 33.15330 -116.41565 15622 ft 363 kts 226°
2026-04-23 18:53 33.13444 -116.43539 15077 ft 361 kts 226°
2026-04-23 18:54 33.11542 -116.45528 14530 ft 358 kts 225°
2026-04-23 18:54 33.09684 -116.47469 14003 ft 356 kts 225°
2026-04-23 18:54 33.07816 -116.49420 13476 ft 353 kts 225°
2026-04-23 18:54 33.05956 -116.51362 12944 ft 351 kts 225°
2026-04-23 18:55 33.04108 -116.53289 12414 ft 349 kts 225°
2026-04-23 18:55 33.02269 -116.55207 11882 ft 347 kts 225°
2026-04-23 18:55 33.00466 -116.57087 11346 ft 346 kts 225°
2026-04-23 18:55 32.98659 -116.58968 10836 ft 343 kts 225°
2026-04-23 18:56 32.97461 -116.60214 10713 ft 335 kts 225°
2026-04-23 18:56 32.95132 -116.62573 10580 ft 317 kts 218°
2026-04-23 18:56 32.93145 -116.63659 10524 ft 308 kts 201°
2026-04-23 18:56 32.91125 -116.64291 10491 ft 295 kts 198°
2026-04-23 18:57 32.89097 -116.64827 10211 ft 292 kts 197°
2026-04-23 18:57 32.87100 -116.65333 9823 ft 292 kts 196°
2026-04-23 18:57 32.85128 -116.65823 9756 ft 279 kts 195°
2026-04-23 18:57 32.83276 -116.66282 9741 ft 265 kts 196°
2026-04-23 18:58 32.81481 -116.66729 9647 ft 255 kts 196°
2026-04-23 18:58 32.79730 -116.67168 9311 ft 255 kts 195°
2026-04-23 18:58 32.78050 -116.67821 8887 ft 250 kts 215°
2026-04-23 18:58 32.76788 -116.69138 8528 ft 243 kts 234°
2026-04-23 18:59 32.75772 -116.70830 8030 ft 248 kts 238°
2026-04-23 18:59 32.74813 -116.72559 7639 ft 248 kts 239°
2026-04-23 18:59 32.73894 -116.74249 7339 ft 244 kts 239°
2026-04-23 18:59 32.72966 -116.75960 7041 ft 239 kts 239°
2026-04-23 19:00 32.72077 -116.77602 6733 ft 234 kts 239°
2026-04-23 19:00 32.71197 -116.79226 6454 ft 226 kts 239°
2026-04-23 19:00 32.70365 -116.80759 6193 ft 218 kts 238°
2026-04-23 19:00 32.69553 -116.82256 5939 ft 211 kts 239°
2026-04-23 19:01 32.68767 -116.83704 5697 ft 204 kts 239°
2026-04-23 19:01 32.68006 -116.85106 5478 ft 197 kts 239°
2026-04-23 19:01 32.67262 -116.86477 5237 ft 198 kts 239°
2026-04-23 19:01 32.66544 -116.87874 4979 ft 196 kts 248°
2026-04-23 19:02 32.66320 -116.88916 4813 ft 191 kts 269°
2026-04-23 19:02 32.66509 -116.91007 4508 ft 191 kts 284°
2026-04-23 19:02 32.66845 -116.92530 4278 ft 190 kts 287°
2026-04-23 19:02 32.67218 -116.94043 4044 ft 189 kts 288°
2026-04-23 19:03 32.67594 -116.95531 3818 ft 188 kts 288°
2026-04-23 19:03 32.67970 -116.97019 3595 ft 187 kts 288°
2026-04-23 19:03 32.68343 -116.98515 3380 ft 186 kts 288°
2026-04-23 19:03 32.68706 -116.99988 3185 ft 186 kts 288°
2026-04-23 19:04 32.69071 -117.01465 2990 ft 186 kts 288°
2026-04-23 19:04 32.69439 -117.02962 2780 ft 185 kts 287°
2026-04-23 19:04 32.69790 -117.04395 2580 ft 174 kts 287°
2026-04-23 19:04 32.70120 -117.05739 2353 ft 166 kts 287°
2026-04-23 19:05 32.70431 -117.07007 2145 ft 152 kts 288°
2026-04-23 19:05 32.70721 -117.08189 1950 ft 148 kts 288°
2026-04-23 19:05 32.71012 -117.09378 1736 ft 148 kts 287°
2026-04-23 19:05 32.71297 -117.10545 1495 ft 146 kts 287°
2026-04-23 19:06 32.71580 -117.11699 1264 ft 145 kts 287°
2026-04-23 19:06 32.71864 -117.12865 1037 ft 146 kts 287°
2026-04-23 19:06 32.72149 -117.14019 783 ft 143 kts 287°
2026-04-23 19:06 32.72433 -117.15167 584 ft 144 kts 285°
2026-04-23 19:07 32.72712 -117.16325 413 ft 146 kts 286°
2026-04-23 19:07 32.72998 -117.17484 159 ft 146 kts 285°
2026-04-23 19:07 32.73270 -117.18614 30 ft 131 kts 285°
2026-04-23 19:07 32.73483 -117.19498 30 ft 79 kts 286°
2026-04-23 19:08 32.73577 -117.19888 27 ft 23 kts 286°
2026-04-23 19:08 32.73621 -117.20063 27 ft 16 kts 285°
2026-04-23 19:08 32.73634 -117.20172 27 ft 9 kts 244°
2026-04-23 19:08 32.73593 -117.20209 27 ft 5 kts 202°
2026-04-23 19:09 32.73573 -117.20218 27 ft 0 kts 200°
2026-04-23 19:09 32.73572 -117.20218 27 ft 0 kts 200°
2026-04-23 19:09 32.73571 -117.20219 27 ft 0 kts 201°
2026-04-23 19:10 32.73569 -117.20219 27 ft 0 kts 207°
2026-04-23 19:10 32.73567 -117.20222 27 ft 0 kts 225°
2026-04-23 19:10 32.73564 -117.20228 27 ft 1 kts 251°
2026-04-23 19:10 32.73565 -117.20265 27 ft 5 kts 285°
2026-04-23 19:11 32.73577 -117.20312 27 ft 6 kts 287°
2026-04-23 19:11 32.73591 -117.20363 27 ft 6 kts 287°
2026-04-23 19:11 32.73603 -117.20417 27 ft 6 kts 284°
2026-04-23 19:11 32.73605 -117.20473 27 ft 7 kts 270°
2026-04-23 19:12 32.73606 -117.20513 27 ft 7 kts 271°
2026-04-23 19:12 32.73603 -117.20594 27 ft 7 kts 255°
2026-04-23 19:12 32.73575 -117.20644 27 ft 7 kts 227°
2026-04-23 19:12 32.73532 -117.20679 27 ft 7 kts 200°
2026-04-23 19:13 32.73476 -117.20688 27 ft 8 kts 182°
2026-04-23 19:13 32.73412 -117.20689 25 ft 10 kts 181°
2026-04-23 19:13 32.73363 -117.20691 24 ft 4 kts 192°
2026-04-23 19:13 32.73326 -117.20699 24 ft 6 kts 189°
2026-04-23 19:14 32.73294 -117.20705 24 ft 2 kts 192°
2026-04-23 19:14 32.73281 -117.20709 24 ft 1 kts 192°
2026-04-23 19:14 32.73270 -117.20712 24 ft 1 kts 192°
2026-04-23 19:14 32.73267 -117.20712 24 ft 0 kts 192°
2026-04-23 19:15 32.73262 -117.20714 24 ft 0 kts 192°